Weather History for Altus AFB, OK

Change the Weather History Date:

Thursday, September 5, 2013

  Actual Average Record
Temperature  
Mean Temperature 86 °F -  
Max Temperature 100 °F 89 °F 107 °F (1998)
Min Temperature 72 °F 65 °F 55 °F (2010)
Cooling Degree Days 20    
Growing Degree Days 36 (Base 50)    
Moisture  
Dew Point 61 °F    
Average Humidity 49    
Maximum Humidity 71    
Minimum Humidity 24    
Precipitation  
Precipitation 0.00 in - - ()
Sea Level Pressure  
Sea Level Pressure 30.06 in    
Wind  
Wind Speed 8 mph (ESE)    
Max Wind Speed 12 mph    
Max Gust Speed 17 mph    
Visibility 10 miles    
Events      
Averages and records for this station are not official NWS values.
T = Trace of Precipitation, MM = Missing Value Source: NWS Daily Summary

Daily Weather History Graph

Daily Weather History Graph

Search for Another Location

Airport:

Trip Planner

Search our weather history database for the weather conditions in past years. The results will help you decide how hot, cold, wet, or windy it might be!

Date:

Astronomy

Sep. 05, 2013 Rise Set
Actual Time 7:13 AM CDT 7:57 PM CDT
Civil Twilight 6:47 AM CDT 8:23 PM CDT
Nautical Twilight 6:17 AM CDT 8:53 PM CDT
Astronomical Twilight 5:46 AM CDT 9:24 PM CDT
Moon 7:23 AM CDT (9/5) 7:54 PM CDT (9/5)
Length of Visible Light 13h 35m
Length of Day
12h 44m
New Moon, 0% of the Moon is Illuminated
Sep 5
New Moon
Sep 12
First Quarter
Sep 19
Full
Sep 26
Last Quarter
Oct 4
New

Hourly Weather History & Observations

Time (CDT) Temp. Heat Index Dew Point Humidity Pressure Visibility Wind Dir Wind Speed Gust Speed Precip Events Conditions
12:58 AM 80.2 °F 81.6 °F 63.1 °F 56% 30.04 in 10.0 mi East 10.4 mph - N/A   Clear
1:58 AM 78.3 °F - 63.7 °F 61% 30.05 in 10.0 mi East 8.1 mph - N/A   Clear
2:58 AM 75.7 °F - 63.5 °F 66% 30.03 in 10.0 mi East 6.9 mph - N/A   Clear
3:58 AM 74.8 °F - 63.0 °F 66% 30.03 in 10.0 mi East 6.9 mph - N/A   Clear
4:58 AM 74.3 °F - 63.0 °F 68% 30.04 in 10.0 mi East 4.6 mph - N/A   Clear
5:58 AM 73.9 °F - 62.6 °F 68% 30.04 in 10.0 mi East 4.6 mph - N/A   Clear
6:58 AM 72.3 °F - 62.6 °F 71% 30.05 in 10.0 mi East 4.6 mph - N/A   Clear
7:58 AM 74.3 °F - 63.3 °F 68% 30.07 in 10.0 mi East 5.8 mph - N/A   Clear
8:58 AM 79.0 °F - 63.9 °F 60% 30.09 in 10.0 mi ESE 9.2 mph - N/A   Clear
9:58 AM 83.5 °F 85.3 °F 65.5 °F 54% 30.09 in 10.0 mi SE 6.9 mph - N/A   Clear
10:58 AM 87.3 °F 89.2 °F 65.7 °F 48% 30.10 in 10.0 mi Variable 6.9 mph - N/A   Clear
11:58 AM 92.1 °F 93.6 °F 64.0 °F 39% 30.09 in 10.0 mi SSE 5.8 mph - N/A   Clear
12:58 PM 95.9 °F 96.1 °F 60.8 °F 31% 30.07 in 10.0 mi Variable 6.9 mph - N/A   Clear
1:58 PM 97.0 °F 96.1 °F 57.9 °F 27% 30.05 in 10.0 mi SE 10.4 mph - N/A   Clear
2:51 PM 98.6 °F 97.2 °F 55.4 °F 24% 30.08 in 10.0 mi SSE 11.5 mph 17.3 mph N/A   Scattered Clouds
2:58 PM 98.6 °F 97.6 °F 56.7 °F 25% 30.03 in 10.0 mi SE 8.1 mph - N/A   Scattered Clouds
3:58 PM 99.0 °F 98.6 °F 58.1 °F 26% 30.01 in 10.0 mi East 11.5 mph - N/A   Scattered Clouds
8:56 PM 86.0 °F 84.5 °F 55.4 °F 35% 30.05 in 10.0 mi East 9.2 mph - N/A   Clear
11:58 PM 81.0 °F 81.0 °F 56.8 °F 44% 30.05 in 10.0 mi East 9.2 mph - N/A   Clear